• în Republica Moldova
  • Lista ţărilor
  • Pe 7 zile
  • Temperatura apei
  • Hartă satelitară
  • Meteo pe hartă
  • Widget-uri
  • user-avatar
    Intrare

    Meteo pe oră la Kaprun

    Astăzi, 23 August, Miercuri

    Timp Temperatura Precipitaţii Vânt Presiune Umiditate
    00:00 +5°C° 0 mm 1 m/s 599 mmHg 96%
    01:00 +5°C° 0 mm 1 m/s 599 mmHg 96%
    02:00 +4°C° 0 mm 1 m/s 598 mmHg 95%
    03:00 +4°C° 0 mm 1 m/s 598 mmHg 94%
    04:00 +4°C° 0 mm 1 m/s 598 mmHg 92%
    05:00 +5°C° 0 mm 1 m/s 599 mmHg 87%
    06:00 +7°C° 0 mm 1 m/s 600 mmHg 82%
    07:00 +8°C° 0 mm 1 m/s 600 mmHg 77%
    08:00 +11°C° 0 mm 1 m/s 601 mmHg 67%
    09:00 +13°C° 0 mm 1 m/s 602 mmHg 57%
    10:00 +16°C° 0 mm 1 m/s 603 mmHg 48%
    11:00 +16°C° 0 mm 1 m/s 603 mmHg 47%
    12:00 +16°C° 0 mm 2 m/s 603 mmHg 47%
    13:00 +17°C° 0 mm 2 m/s 603 mmHg 47%
    14:00 +16°C° 0,3 mm 2 m/s 603 mmHg 51%
    15:00 +16°C° 0,3 mm 2 m/s 603 mmHg 56%
    16:00 +16°C° 0,3 mm 2 m/s 603 mmHg 60%
    17:00 +14°C° 0,7 mm 1 m/s 602 mmHg 70%
    18:00 +12°C° 0,7 mm 1 m/s 601 mmHg 79%
    19:00 +10°C° 0,7 mm 1 m/s 600 mmHg 88%
    20:00 +9°C° 0,1 mm 1 m/s 600 mmHg 88%
    21:00 +8°C° 0,1 mm 1 m/s 600 mmHg 89%
    22:00 +7°C° 0,1 mm 1 m/s 600 mmHg 89%
    23:00 +7°C° 0 mm 1 m/s 600 mmHg 88%

    Mâine, 24 August, Joi

    Timp Temperatura Precipitaţii Vânt Presiune Umiditate
    00:00 +7°C° 0 mm 1 m/s 600 mmHg 86%
    01:00 +7°C° 0 mm 1 m/s 600 mmHg 85%
    02:00 +7°C° 0 mm 1 m/s 600 mmHg 83%
    03:00 +6°C° 0 mm 1 m/s 600 mmHg 81%
    04:00 +5°C° 0 mm 2 m/s 599 mmHg 79%
    05:00 +8°C° 0 mm 1 m/s 600 mmHg 75%
    06:00 +9°C° 0 mm 1 m/s 601 mmHg 72%
    07:00 +11°C° 0 mm 1 m/s 602 mmHg 69%
    08:00 +13°C° 0 mm 1 m/s 603 mmHg 60%
    09:00 +16°C° 0 mm 1 m/s 604 mmHg 51%
    10:00 +18°C° 0 mm 0 m/s 605 mmHg 42%
    11:00 +21°C° 0 mm 1 m/s 605 mmHg 41%
    12:00 +21°C° 0 mm 1 m/s 606 mmHg 40%
    13:00 +22°C° 0 mm 1 m/s 606 mmHg 38%
    14:00 +21°C° 0,1 mm 1 m/s 605 mmHg 44%
    15:00 +20°C° 0,1 mm 1 m/s 605 mmHg 49%
    16:00 +19°C° 0,1 mm 1 m/s 604 mmHg 55%
    17:00 +16°C° 1,2 mm 1 m/s 603 mmHg 66%
    18:00 +14°C° 1,2 mm 1 m/s 603 mmHg 77%
    19:00 +11°C° 1,2 mm 0 m/s 602 mmHg 88%
    20:00 +11°C° 0,4 mm 1 m/s 602 mmHg 89%
    21:00 +11°C° 0,4 mm 1 m/s 602 mmHg 90%
    22:00 +10°C° 0,4 mm 1 m/s 602 mmHg 90%
    23:00 +10°C° 0,1 mm 1 m/s 602 mmHg 90%

    Poimâine, 25 August, Vineri

    Timp Temperatura Precipitaţii Vânt Presiune Umiditate
    00:00 +9°C° 0,1 mm 1 m/s 602 mmHg 89%
    01:00 +9°C° 0,1 mm 1 m/s 601 mmHg 89%
    02:00 +8°C° 0,1 mm 1 m/s 601 mmHg 88%
    03:00 +8°C° 0,1 mm 1 m/s 601 mmHg 88%
    04:00 +8°C° 0,1 mm 1 m/s 601 mmHg 87%
    05:00 +9°C° 0 mm 1 m/s 601 mmHg 84%
    06:00 +10°C° 0 mm 1 m/s 602 mmHg 80%
    07:00 +11°C° 0 mm 1 m/s 602 mmHg 77%
    08:00 +14°C° 0 mm 1 m/s 604 mmHg 66%
    09:00 +18°C° 0 mm 1 m/s 605 mmHg 56%
    10:00 +18°C° 0 mm 0 m/s 606 mmHg 45%
    11:00 +21°C° 0 mm 1 m/s 606 mmHg 43%
    12:00 +22°C° 0 mm 1 m/s 606 mmHg 41%
    13:00 +22°C° 0 mm 1 m/s 606 mmHg 39%
    14:00 +22°C° 0,1 mm 1 m/s 606 mmHg 45%
    15:00 +21°C° 0,1 mm 1 m/s 605 mmHg 50%
    16:00 +20°C° 0,1 mm 1 m/s 605 mmHg 55%
    17:00 +18°C° 0,6 mm 1 m/s 604 mmHg 65%
    18:00 +14°C° 0,6 mm 1 m/s 603 mmHg 76%
    19:00 +11°C° 0,6 mm 0 m/s 602 mmHg 86%
    20:00 +12°C° 0,2 mm 1 m/s 602 mmHg 86%
    21:00 +11°C° 0,2 mm 1 m/s 602 mmHg 85%
    22:00 +11°C° 0,2 mm 1 m/s 602 mmHg 85%
    23:00 +11°C° 0 mm 1 m/s 602 mmHg 83%

    26 August, Sâmbătă

    Timp Temperatura Precipitaţii Vânt Presiune Umiditate
    00:00 +11°C° 0 mm 1 m/s 602 mmHg 82%
    01:00 +11°C° 0 mm 1 m/s 602 mmHg 80%
    02:00 +11°C° 0 mm 1 m/s 602 mmHg 79%
    03:00 +10°C° 0 mm 1 m/s 601 mmHg 78%
    04:00 +10°C° 0 mm 1 m/s 601 mmHg 77%
    05:00 +11°C° 0 mm 1 m/s 602 mmHg 75%
    06:00 +12°C° 0 mm 1 m/s 602 mmHg 72%
    07:00 +13°C° 0 mm 1 m/s 603 mmHg 70%
    08:00 +16°C° 0 mm 1 m/s 604 mmHg 61%
    09:00 +19°C° 0 mm 1 m/s 605 mmHg 52%
    10:00 +22°C° 0 mm 1 m/s 606 mmHg 42%
    11:00 +22°C° 0,1 mm 1 m/s 606 mmHg 41%
    12:00 +23°C° 0,1 mm 1 m/s 606 mmHg 40%
    13:00 +23°C° 0,1 mm 2 m/s 606 mmHg 39%
    14:00 +23°C° 0,1 mm 2 m/s 606 mmHg 42%
    15:00 +21°C° 0,1 mm 2 m/s 605 mmHg 46%
    16:00 +21°C° 0,1 mm 2 m/s 605 mmHg 50%
    17:00 +20°C° 0,6 mm 1 m/s 604 mmHg 60%
    18:00 +16°C° 0,6 mm 1 m/s 603 mmHg 70%
    19:00 +14°C° 0,6 mm 1 m/s 602 mmHg 79%
    20:00 +14°C° 0,2 mm 1 m/s 602 mmHg 79%
    21:00 +13°C° 0,2 mm 1 m/s 602 mmHg 79%
    22:00 +12°C° 0,2 mm 1 m/s 602 mmHg 79%
    23:00 +12°C° 0 mm 1 m/s 602 mmHg 79%

    27 August, Duminică

    Timp Temperatura Precipitaţii Vânt Presiune Umiditate
    00:00 +11°C° 0 mm 1 m/s 601 mmHg 78%
    01:00 +10°C° 0 mm 1 m/s 601 mmHg 77%
    02:00 +10°C° 0,1 mm 1 m/s 601 mmHg 77%
    03:00 +10°C° 0,1 mm 1 m/s 600 mmHg 76%
    04:00 +9°C° 0,1 mm 1 m/s 600 mmHg 75%
    05:00 +11°C° 0,2 mm 1 m/s 601 mmHg 73%
    06:00 +12°C° 0,2 mm 1 m/s 601 mmHg 71%
    07:00 +13°C° 0,2 mm 1 m/s 602 mmHg 69%
    08:00 +16°C° 0 mm 1 m/s 603 mmHg 60%
    09:00 +19°C° 0 mm 1 m/s 604 mmHg 51%
    10:00 +20°C° 0 mm 0 m/s 605 mmHg 42%
    11:00 +23°C° 0 mm 1 m/s 605 mmHg 40%
    12:00 +23°C° 0 mm 1 m/s 605 mmHg 39%
    13:00 +24°C° 0 mm 1 m/s 605 mmHg 38%
    14:00 +23°C° 0 mm 1 m/s 604 mmHg 42%
    15:00 +22°C° 0 mm 1 m/s 604 mmHg 46%
    16:00 +22°C° 0 mm 1 m/s 603 mmHg 50%
    17:00 +19°C° 1,5 mm 1 m/s 603 mmHg 62%
    18:00 +15°C° 1,5 mm 0 m/s 602 mmHg 74%
    19:00 +13°C° 1,5 mm 0 m/s 601 mmHg 85%
    20:00 +13°C° 1,5 mm 1 m/s 601 mmHg 86%
    21:00 +13°C° 1,5 mm 1 m/s 601 mmHg 87%
    22:00 +13°C° 1,5 mm 1 m/s 601 mmHg 88%
    23:00 +12°C° 0,4 mm 1 m/s 601 mmHg 88%

    28 August, Luni

    Timp Temperatura Precipitaţii Vânt Presiune Umiditate
    00:00 +12°C° 0,4 mm 1 m/s 601 mmHg 88%
    01:00 +11°C° 0,4 mm 1 m/s 600 mmHg 88%
    02:00 +11°C° 0,2 mm 1 m/s 600 mmHg 87%
    03:00 +11°C° 0,2 mm 1 m/s 600 mmHg 87%
    04:00 +10°C° 0,2 mm 1 m/s 600 mmHg 86%
    05:00 +11°C° 0,2 mm 1 m/s 601 mmHg 86%
    06:00 +12°C° 0,2 mm 2 m/s 601 mmHg 85%
    07:00 +12°C° 0,2 mm 2 m/s 602 mmHg 84%
    08:00 +14°C° 0,1 mm 1 m/s 602 mmHg 75%
    09:00 +16°C° 0,1 mm 1 m/s 603 mmHg 67%
    10:00 +19°C° 0,1 mm 1 m/s 604 mmHg 58%
    11:00 +19°C° 0,2 mm 2 m/s 604 mmHg 54%
    12:00 +19°C° 0,2 mm 2 m/s 604 mmHg 50%
    13:00 +20°C° 0,2 mm 2 m/s 605 mmHg 46%
    14:00 +20°C° 0,2 mm 2 m/s 604 mmHg 49%
    15:00 +19°C° 0,2 mm 2 m/s 604 mmHg 52%
    16:00 +19°C° 0,2 mm 2 m/s 604 mmHg 55%
    17:00 +16°C° 0,2 mm 2 m/s 603 mmHg 67%
    18:00 +14°C° 0,2 mm 2 m/s 602 mmHg 78%
    19:00 +12°C° 0,2 mm 1 m/s 602 mmHg 89%
    20:00 +11°C° 0 mm 1 m/s 602 mmHg 90%
    21:00 +11°C° 0 mm 1 m/s 602 mmHg 91%
    22:00 +10°C° 0 mm 1 m/s 602 mmHg 93%
    23:00 +10°C° 0 mm 1 m/s 602 mmHg 91%
    Arată mai mult